FW9881 Weather Reports


time (UTC)temp
F
wind
direction
speed
knots
gust
knots
rain 1hr
in
rain 24hr
in
rain mn
in
humidity
%
barometer
mb
20260506222532 58 183 3.5 7.0 0.00 0.22 0.20 90 1008.1
20260506221533 58 203 0.9 2.6 0.00 0.22 0.20 90 1008.1
20260506220631 58 247 1.7 4.3 0.00 0.22 0.20 90 1008.2
20260506215634 58 200 2.6 7.0 0.00 0.22 0.20 90 1008.1
20260506213829 58 206 3.5 7.8 0.00 0.22 0.20 89 1008.1
20260506213731 58 140 2.6 6.1 0.00 0.22 0.20 90 1008.1
20260506212731 58 220 2.6 5.2 0.00 0.22 0.20 89 1008.1
20260506211731 59 200 3.5 9.6 0.00 0.22 0.20 88 1008.1
20260506210730 58 193 0.9 1.7 0.00 0.22 0.20 89 1008.2
20260506205747 58 161 3.5 7.8 0.01 0.22 0.20 89 1008.1
20260506203832 59 182 1.7 8.7 0.03 0.22 0.20 89 1008.4
20260506203732 59 207 4.3 12.2 0.03 0.22 0.20 89 1008.5
20260506202732 59 204 3.5 6.1 0.04 0.22 0.20 89 1008.5
20260506201830 59 210 2.6 7.8 0.06 0.22 0.20 89 1008.5
20260506200830 59 190 1.7 7.8 0.09 0.22 0.20 89 1008.7
20260506200731 59 203 0.9 2.6 0.09 0.22 0.20 89 1008.7
20260506195747 59 208 3.5 7.0 0.08 0.21 0.19 89 1008.7
20260506195646 59 177 2.6 6.1 0.09 0.21 0.19 88 1008.8
20260506193730 59 219 0.9 3.5 0.07 0.19 0.17 88 1009.0
20260506191731 59 112 0.0 0.9 0.05 0.16 0.13 88 1009.1
20260506190830 60 202 0.0 1.7 0.03 0.13 0.11 89 1009.2
20260506185830 60 243 1.7 3.5 0.04 0.13 0.11 89 1009.1
20260506185733 60 219 2.6 4.3 0.04 0.13 0.10 89 1009.2
20260506183831 59 174 2.6 4.3 0.05 0.12 0.10 88 1009.1
20260506182829 59 135 0.0 0.9 0.05 0.11 0.09 89 1009.6
20260506181830 59 337 0.0 0.0 0.07 0.11 0.09 89 1009.8
20260506180831 59 206 1.7 5.2 0.07 0.10 0.08 89 1010.1
20260506175847 59 220 0.9 1.7 0.06 0.09 0.07 89 1010.1
20260506174931 59 287 0.0 0.9 0.06 0.08 0.06 89 1010.2
20260506174832 59 157 0.0 0.0 0.06 0.08 0.06 88 1010.2
20260506173831 59 148 0.9 3.5 0.05 0.07 0.05 88 1010.5
20260506173729 59 145 0.9 3.5 0.05 0.07 0.05 88 1010.4
20260506173633 59 176 1.7 2.6 0.05 0.07 0.05 88 1010.6
20260506172631 60 212 0.9 3.5 0.03 0.05 0.03 87 1010.6
20260506172530 60 191 0.0 1.7 0.03 0.05 0.03 86 1010.7
20260506171531 60 213 2.6 4.3 0.02 0.04 0.02 84 1010.6
20260506165631 61 233 1.7 3.5 0.00 0.02 0.00 81 1010.6
20260506164633 62 207 4.3 7.8 0.00 0.02 0.00 79 1010.4
20260506164530 62 237 3.5 7.0 0.00 0.02 0.00 78 1010.6
20260506163531 63 234 2.6 6.1 0.00 0.02 0.00 76 1010.4
20260506161630 63 200 0.9 2.6 0.00 0.02 0.00 75 1010.5
20260506160630 63 183 1.7 11.3 0.00 0.02 0.00 75 1010.8
20260506155646 63 241 2.6 7.8 0.00 0.02 0.00 74 1011.0
20260506154630 63 177 4.3 9.6 0.00 0.02 0.00 75 1011.0
20260506154545 63 194 2.6 6.1 0.00 0.02 0.00 75 1011.1
20260506153530 63 214 5.2 8.7 0.00 0.02 0.00 74 1011.1
20260506152532 63 167 3.5 6.1 0.00 0.02 0.00 75 1011.3
20260506152446 63 253 1.7 3.5 0.00 0.02 0.00 74 1011.4
20260506151531 64 201 2.6 5.2 0.00 0.02 0.00 74 1011.4
20260506150532 64 159 2.6 5.2 0.00 0.02 0.00 74 1011.5
20260506144530 64 196 3.5 5.2 0.00 0.02 0.00 73 1011.3
20260506142630 65 134 1.7 6.1 0.00 0.02 0.00 72 1011.5
20260506141729 65 273 0.9 4.3 0.00 0.02 0.00 72 1011.4
20260506140729 64 191 5.2 9.6 0.00 0.02 0.00 74 1011.1
20260506135730 64 169 3.5 6.1 0.00 0.02 0.00 75 1011.1
20260506134732 64 142 3.5 7.0 0.00 0.02 0.00 77 1011.2
20260506131731 61 226 3.5 5.2 0.00 0.02 0.00 80 1011.9
20260506125731 61 207 4.3 9.6 0.00 0.02 0.00 80 1011.9
20260506125630 61 245 4.3 9.6 0.00 0.02 0.00 80 1012.1
20260506124629 60 234 5.2 10.4 0.00 0.02 0.00 81 1012.0
20260506123729 60 219 5.2 8.7 0.00 0.02 0.00 81 1012.0
20260506122729 60 216 3.5 6.1 0.00 0.02 0.00 81 1012.2
20260506121731 60 230 4.3 9.6 0.00 0.02 0.00 82 1011.8
20260506120731 60 238 2.6 5.2 0.00 0.02 0.00 82 1011.9
20260506115829 60 247 2.6 5.2 0.00 0.02 0.00 81 1011.8
20260506114832 60 229 3.5 9.6 0.00 0.02 0.00 82 1012.1
20260506113846 59 240 4.3 7.0 0.00 0.02 0.00 82 1012.3
20260506112929 59 161 0.9 2.6 0.00 0.02 0.00 83 1012.1
20260506111932 59 236 3.5 7.0 0.00 0.02 0.00 82 1012.3
20260506111831 59 223 2.6 4.3 0.00 0.02 0.00 83 1012.3
20260506105931 58 191 2.6 5.2 0.00 0.02 0.00 82 1012.2
20260506103931 58 239 1.7 3.5 0.00 0.02 0.00 83 1012.0
20260506102931 57 238 2.6 4.3 0.00 0.02 0.00 84 1012.0
20260506101030 57 222 4.3 8.7 0.00 0.02 0.00 84 1012.1
20260506100051 56 225 2.6 4.3 0.00 0.02 0.00 84 1011.9
20260506095946 56 192 2.6 4.3 0.00 0.02 0.00 84 1011.8
20260506095030 57 221 1.7 3.5 0.00 0.02 0.00 83 1011.9
20260506094032 57 218 3.5 7.8 0.00 0.02 0.00 83 1011.7
20260506093129 57 226 3.5 8.7 0.00 0.02 0.00 83 1012.0
20260506092130 57 209 3.5 8.7 0.00 0.02 0.00 83 1011.8
20260506091130 57 205 2.6 7.0 0.00 0.02 0.00 83 1011.8
20260506090131 57 157 3.5 6.1 0.00 0.02 0.00 82 1011.8
20260506084230 57 240 2.6 6.1 0.00 0.02 0.00 82 1011.9
20260506084128 57 216 1.7 2.6 0.00 0.02 0.00 81 1011.9
20260506083131 57 232 0.9 3.5 0.00 0.02 0.00 81 1012.0
20260506082131 57 247 0.9 3.5 0.00 0.02 0.00 80 1012.1
20260506081129 57 221 0.9 4.3 0.00 0.02 0.00 78 1012.0
20260506081029 57 214 0.9 4.3 0.00 0.02 0.00 79 1012.1
20260506072031 59 219 0.9 2.6 0.00 0.02 0.00 75 1012.2
20260506071030 59 236 2.6 5.2 0.00 0.02 0.00 73 1012.3
20260506062045 61 214 5.2 8.7 0.00 0.02 0.00 72 1012.0
20260506061030 60 214 1.7 8.7 0.00 0.02 0.00 72 1011.9
20260506050929 61 205 5.2 9.6 0.00 0.02 0.00 69 1012.1
20260506044831 61 202 1.7 4.3 0.00 0.02 0.00 69 1012.1
20260506043928 61 219 3.5 6.1 0.00 0.02 0.00 70 1012.4
20260506042945 61 186 1.7 6.1 0.00 0.02 0.00 71 1012.4
20260506042830 61 178 1.7 4.3 0.00 0.02 0.00 71 1012.4
20260506041829 61 187 4.3 7.0 0.00 0.02 0.00 72 1012.4
20260506040831 61 248 3.5 4.3 0.00 0.02 0.00 72 1012.5
20260506040728 61 230 0.9 2.6 0.00 0.02 0.00 73 1012.4
20260506035735 61 229 2.6 4.3 0.00 0.02 0.02 74 1012.3
20260506035636 61 210 1.7 3.5 0.00 0.02 0.02 75 1012.3
20260506034734 60 228 2.6 3.5 0.00 0.02 0.02 78 1012.3
20260506033735 59 210 3.5 5.2 0.00 0.02 0.02 81 1012.4
20260506031834 60 176 1.7 4.3 0.00 0.02 0.02 83 1012.1
20260506031735 60 193 1.7 3.5 0.00 0.02 0.02 83 1012.2
20260506030752 59 220 1.7 4.3 0.00 0.02 0.02 85 1012.3
20260506025833 59 247 0.9 2.6 0.00 0.02 0.02 86 1012.3
20260506024850 59 196 1.7 2.6 0.00 0.02 0.02 88 1012.3
20260506023934 59 212 1.7 2.6 0.00 0.02 0.02 88 1012.5
20260506023835 59 239 1.7 1.7 0.00 0.02 0.02 88 1012.5
20260506021835 59 199 0.9 2.6 0.00 0.02 0.02 89 1012.1
20260506020836 59 157 0.0 0.9 0.00 0.02 0.02 88 1012.1
20260506015935 59 157 0.0 0.0 0.00 0.02 0.02 89 1012.2
20260506015836 59 157 0.0 0.0 0.00 0.02 0.02 89 1012.2
20260506014737 59 157 0.0 0.0 0.00 0.02 0.02 88 1012.3
20260506012751 60 157 0.0 0.0 0.00 0.02 0.02 87 1012.1
20260506011837 60 148 0.9 1.7 0.00 0.02 0.02 86 1011.9
20260506011735 60 112 0.0 0.9 0.00 0.02 0.02 86 1011.9
20260506011634 61 112 0.0 1.7 0.00 0.02 0.02 86 1011.9
20260506004833 61 225 0.0 0.0 0.02 0.02 0.02 85 1011.9
20260506003834 61 180 0.0 0.0 0.02 0.02 0.02 83 1011.7
20260506003734 61 180 0.0 0.0 0.02 0.02 0.02 82 1011.8
20260506002737 62 180 0.0 0.9 0.02 0.02 0.02 79 1011.7
20260506001834 63 180 0.0 0.9 0.02 0.02 0.02 76 1011.7
20260506000933 65 22 0.0 0.0 0.02 0.02 0.02 67 1011.5
20260506000834 65 22 0.0 0.0 0.02 0.02 0.02 66 1011.6
20260505235853 69 157 0.0 0.0 0.01 0.01 0.01 55 1011.1
20260505234936 71 337 4.3 5.2 0.00 0.00 0.00 46 1010.6
20260505232933 72 252 2.6 5.2 0.00 0.00 0.00 46 1009.3
20260505231934 73 247 1.7 4.3 0.00 0.00 0.00 45 1009.0
20260505231033 73 226 2.6 4.3 0.00 0.00 0.00 44 1008.9
20260505230951 73 229 6.1 13.0 0.00 0.00 0.00 45 1008.9